Location: Hiram
(41.3130°N, 81.1440°W)
Time: 14:14:30
(UTC-04:00)

Daily predictions for brighter satellites

Satellite Brightness Start Highest point End
(mag) Time Altitude Azimuth Time Altitude Azimuth Time Altitude Azimuth
SPOT 3 Rocket 3.6 19:33:01 10° SSE 19:38:10 87° ENE 19:43:22 10° NNW
Cosmos 1125 Rocket 4.4 19:35:00 10° N 19:39:41 30° ENE 19:44:20 10° ESE
Meteor 1-24 Rocket 4.2 19:35:44 10° N 19:41:20 41° ENE 19:46:44 10° SE
NOAA 12 4.1 19:36:54 10° SSE 19:42:05 66° ENE 19:47:19 10° N
Cosmos 1656 Rocket 3.7 19:40:08 10° NNW 19:45:49 77° ENE 19:51:21 10° SSE
Milstar 3 Cent rocket 4.0 19:42:30 10° SSW 19:46:00 16° S 19:48:55 10° SE
ATLAS 2AS CENTAUR R/B 4.3 19:40:25 10° NNW 19:46:42 24° NNE 19:52:42 10° E
Geosat 4.4 19:42:28 10° SE 19:47:14 45° ENE 19:52:00 10° NNW
METEOR-M 4.5 19:45:35 10° S 19:50:55 72° WSW 19:56:17 10° NNW
FENGYUN 3A 3.6 19:46:31 10° SSE 19:51:49 69° ENE 19:57:11 10° N
NOSS 3-1 (A) 4.1 19:49:32 10° NNW 19:57:11 78° NE 20:05:39 10° SE
Cosmos 841 Rocket 3.6 19:55:21 10° SSW 20:00:29 79° WNW 20:05:39 10° NNE
H-2A R/B 3.1 19:57:52 10° SE 20:01:23 41° ENE 20:04:57 10° N
Cosmos 1544 3.5 19:58:29 10° SSE 20:01:49 37° E 20:05:11 10° NNE
SJ-6B 3.3 19:59:21 10° SE 20:03:04 39° ENE 20:06:44 10° N
NOSS 3-1 (C) 4.3 19:56:59 10° NW 20:04:39 78° WSW 20:13:07 10° SSE
BREEZE-M (TANK) 4.3 19:47:09 10° WNW 20:05:16 80° SW 20:09:26 10° SE
USA 81 4.2 20:01:17 10° N 20:06:35 83° W 20:11:52 10° S
COSMO-SKYMED 1 4.0 20:03:07 10° N 20:07:13 42° WNW 20:11:17 10° SW
Cosmos 1953 3.7 20:05:26 10° SE 20:08:17 19° E 20:11:09 10° NE
Cosmos 540 Rocket 3.4 20:04:35 10° S 20:09:36 62° ESE 20:14:39 10° NNE
Cosmos 1378 4.4 20:09:54 10° NNW 20:13:31 44° W 20:17:06 10° SSW
SL-27 R/B 3.2 20:11:58 10° SSE 20:15:13 33° ESE 20:18:32 10° NE
BREEZE-M DEB (TANK) 4.3 20:12:06 10° WNW 20:15:45 40° NNE 20:25:06 13° E
BREEZE M DEB (TANK) 4.2 20:14:05 10° W 20:21:05 34° NNW 20:23:46 11° NE
COSMOS 2406 3.3 20:16:09 10° SSW 20:21:52 86° WNW 20:27:39 10° NNE
SJ 16-02 1.7 20:17:52 10° N 20:22:03 42° ENE 20:24:56 18° SE
In-Cosmos 22 4.2 20:16:28 10° N 20:22:12 75° E 20:27:58 10° SSE
HJ-1C 3.3 20:20:18 10° SSE 20:23:37 63° ENE 20:26:57 10° N
Cosmos 1356 Rocket 4.0 20:20:44 10° NNW 20:25:00 63° W 20:29:15 10° S
Cosmos 1674 3.6 20:22:10 10° NNE 20:25:20 25° ENE 20:25:44 25° E
Meteor 1-22 Rocket 4.2 20:20:22 10° S 20:26:03 88° W 20:31:33 10° N
Cosmos 1766 3.4 20:24:31 10° S 20:28:26 78° W 20:32:21 10° N
Resurs 1-3 4.0 20:33:13 25° SE 20:35:17 40° ENE 20:39:24 10° N
ISS -3.9 20:36:07 10° SW 20:39:23 88° NW 20:40:35 36° NE
FengYun 1-2 T 4.4 20:33:52 10° S 20:39:27 74° WSW 20:45:01 10° NNW
ALOS 3.9 20:35:19 10° SSW 20:39:36 36° W 20:43:56 10° NNW
Cosmos 2074 Rocket 4.4 20:34:27 10° SSW 20:40:36 66° W 20:46:47 10° N
Cosmos 2154 Rocket 3.9 20:34:50 10° S 20:40:59 66° E 20:47:12 10° NNE
MOS 1-B Rocket 4.1 20:37:07 16° SE 20:41:49 50° ENE 20:47:13 10° N
BREEZE-M DEB (TANK) 3.5 20:33:10 10° WSW 20:45:59 83° SSE 20:48:26 28° ENE
Meteor 1-21 Rocket 4.3 20:42:59 10° N 20:48:36 54° ENE 20:51:42 25° SE
Elektron 1 3.5 20:49:12 10° NW 20:52:22 90° NE 20:52:33 76° SE
Spot 2 Rocket 3.5 20:50:59 28° SE 20:53:32 60° ENE 20:58:30 10° N
Cosmos 1758 3.1 20:49:44 10° S 20:53:44 79° E 20:57:45 10° N
Cosmos 1812 Rocket 3.9 20:51:09 10° SSW 20:55:35 70° W 21:00:05 10° N
Cosmos 2341 Rocket 3.9 20:50:08 10° S 20:56:13 61° E 21:02:21 10° NNE
Cosmos 2082 Rocket 4.3 21:03:56 - NE 21:03:56 - NE 20:53:28 10° SSE
Cosmos 1805 3.8 20:54:52 10° SSW 20:58:42 57° W 21:02:33 10° N
ATLAS 5 CENTAUR R/B 3.7 20:56:59 10° S 20:57:40 14° S 20:57:40 14° S
Resurs 01 Rocket 1.5 21:01:55 32° SSE 21:03:56 90° ESE 21:08:23 10° NNW
GP-B 3.1 20:59:49 10° N 21:04:17 82° W 21:08:42 10° S
CZ-2D R/B 3.6 21:04:04 27° S 21:05:56 62° W 21:09:44 10° NNW
Cosmos 2278 3.8 21:00:26 10° NNW 21:06:00 54° ENE 21:07:09 46° ESE
ATLAS CENTAUR R/B 4.5 20:55:29 10° NW 21:06:29 39° WSW 21:10:27 13° S
KORONAS-FOTON 4.4 21:06:13 10° N 21:08:59 44° NNE 21:08:59 44° NNE
Nadezhda 3 Rocket 4.1 21:04:15 10° N 21:10:34 78° W 21:16:46 10° S
Cosmos 1939 Rocket 3.7 21:12:33 37° NNE 21:12:33 37° NNE 21:15:12 10° N
Cosmos 1656 3.8 21:10:07 10° NNW 21:15:40 53° ENE 21:16:07 51° E
Cosmos 1470 4.4 21:21:41 26° N 21:21:41 26° N 21:23:29 10° N
Cosmos 2218 Rocket 4.1 21:20:08 49° E 21:20:08 49° E 21:25:51 10° NNE
Cosmos 1697 Rocket 3.2 21:17:51 10° NNW 21:22:57 42° NE 21:22:57 42° NE
Cosmos 2285 Rocket 3.9 21:16:54 10° SSW 21:23:18 77° ESE 21:29:46 10° NNE
Cosmos 1809 Rocket 4.3 21:18:21 11° S 21:24:20 75° E 21:30:26 10° NNE
Cosmos 1980 Rocket 3.4 21:20:43 10° N 21:24:38 26° NE 21:24:38 26° NE
Envisat 3.1 21:24:15 39° S 21:26:06 72° WSW 21:31:12 10° NNW
Cosmos 1295 Rocket 4.4 21:21:22 10° S 21:27:29 87° W 21:33:36 10° N
Okean 3 Rocket 3.7 21:24:41 10° NNW 21:29:08 71° W 21:29:16 70° WSW
Meteor 2-15 4.3 21:32:44 10° N 21:38:49 87° E 21:39:39 69° SSE
ATLAS 2AS CENTAUR R/B 2.9 21:31:10 10° NNW 21:39:12 72° NE 21:40:36 60° ESE
SL-8 Rocket 3.8 21:38:36 50° S 21:40:20 86° E 21:46:32 10° N
Meteor 2-14 Rocket 4.3 21:43:34 78° E 21:43:34 78° E 21:49:37 10° N
Cosmos 1953 4.2 21:40:53 10° SW 21:44:28 30° WNW 21:48:06 10° NNW
Cosmos 1727 Rocket 4.4 21:39:31 10° N 21:44:38 50° NE 21:44:38 50° NE
Meteor 2-21 Rocket 4.3 21:50:33 79° SSW 21:50:59 88° W 21:57:10 10° N
H-2A R/B 4.1 21:57:09 16° NNE 21:57:09 16° NNE 21:58:21 10° N
SL-16 R/B 4.2 21:51:11 10° N 21:53:07 16° NNE 21:53:07 16° NNE
NOSS 3-3 (A) 4.5 21:51:41 10° SSW 22:05:31 - NE 21:55:46 46° SSW
SJ 16-02 3.9 21:57:30 10° WNW 22:00:15 17° W 22:01:59 14° WSW
FALCON 9 R/B 4.4 22:35:19 10° WSW 22:36:10 16° WSW 22:36:10 16° WSW
Cosmos 2082 Rocket 4.3 22:45:39 21° N 22:45:39 21° N 22:47:42 10° N
Cosmos 2322 Rocket 4.4 22:55:14 10° NNW 22:56:45 19° N 22:56:45 19° N
Cosmos 1980 Rocket 4.3 23:04:19 10° NW 23:06:24 22° NW 23:06:24 22° NW
